{"data":{"norad_id":66390,"epoch":"2026-05-25T05:31:12.982368Z","epoch_age_seconds":55954,"freshness":"FRESH","line1":"1 66390U 25257L   26145.23001137  .00015654  00000+0  53935-3 0  9998","line2":"2 66390  53.1575 221.3792 0000992  80.5589 279.5524 15.30210346 31556","mean_motion":15.30210346,"eccentricity":9.92e-5,"inclination_deg":53.1575,"raan_deg":221.3792,"arg_perigee_deg":80.5589,"mean_anomaly_deg":279.5524,"bstar":0.00053935,"rev_number":3155,"period_min":94.104709444959,"perigee_km":474.50432884137,"apogee_km":475.86402776314,"semimajor_km":6853.3211783023,"source":"CELESTRAK","updated_at":"2026-05-25T13:38:21.202216Z"}}